EN

Hourly Weather Clydebank

Today, 24 July, Saturday

Time Temperature Precipitation Wind Pressure Humidity
00:00 +15°C° 0 mm 2 mps 760 mmHg 95%
01:00 +15°C° 0 mm 2 mps 760 mmHg 95%
02:00 +14°C° 0 mm 2 mps 760 mmHg 96%
03:00 +14°C° 0 mm 2 mps 759 mmHg 96%
04:00 +14°C° 0 mm 2 mps 759 mmHg 95%
05:00 +14°C° 0 mm 2 mps 759 mmHg 94%
06:00 +15°C° 0 mm 2 mps 758 mmHg 92%
07:00 +17°C° 0 mm 2 mps 758 mmHg 85%
08:00 +18°C° 0 mm 2 mps 758 mmHg 77%
09:00 +20°C° 0 mm 2 mps 758 mmHg 69%
10:00 +21°C° 0 mm 2 mps 758 mmHg 64%
11:00 +24°C° 0 mm 2 mps 758 mmHg 58%
12:00 +25°C° 0 mm 2 mps 757 mmHg 52%
13:00 +25°C° 0 mm 2 mps 757 mmHg 51%
14:00 +26°C° 0 mm 2 mps 757 mmHg 50%
15:00 +26°C° 0 mm 2 mps 757 mmHg 49%
16:00 +25°C° 0 mm 2 mps 757 mmHg 53%
17:00 +25°C° 0 mm 2 mps 757 mmHg 58%
18:00 +24°C° 0 mm 2 mps 756 mmHg 62%
19:00 +22°C° 0 mm 1 mps 757 mmHg 70%
20:00 +20°C° 0 mm 1 mps 757 mmHg 78%
21:00 +16°C° 0 mm 1 mps 757 mmHg 85%
22:00 +16°C° 0 mm 1 mps 757 mmHg 87%
23:00 +15°C° 0 mm 1 mps 757 mmHg 88%

Tomorrow, 25 July, Sunday

Time Temperature Precipitation Wind Pressure Humidity
00:00 +14°C° 0 mm 1 mps 757 mmHg 89%
01:00 +14°C° 0 mm 1 mps 757 mmHg 90%
02:00 +13°C° 0 mm 1 mps 757 mmHg 90%
03:00 +13°C° 0 mm 1 mps 757 mmHg 90%
04:00 +13°C° 0 mm 1 mps 757 mmHg 89%
05:00 +14°C° 0 mm 1 mps 757 mmHg 87%
06:00 +14°C° 0 mm 1 mps 757 mmHg 86%
07:00 +16°C° 0 mm 2 mps 757 mmHg 80%
08:00 +18°C° 0 mm 2 mps 757 mmHg 74%
09:00 +19°C° 0 mm 2 mps 757 mmHg 69%
10:00 +21°C° 0 mm 2 mps 757 mmHg 66%
11:00 +23°C° 0 mm 2 mps 756 mmHg 63%
12:00 +24°C° 0 mm 2 mps 756 mmHg 59%
13:00 +24°C° 0 mm 2 mps 756 mmHg 57%
14:00 +25°C° 0 mm 2 mps 756 mmHg 55%
15:00 +25°C° 0 mm 2 mps 756 mmHg 53%
16:00 +25°C° 0 mm 2 mps 756 mmHg 57%
17:00 +24°C° 0 mm 2 mps 756 mmHg 60%
18:00 +23°C° 0 mm 2 mps 756 mmHg 63%
19:00 +22°C° 0 mm 1 mps 756 mmHg 69%
20:00 +20°C° 0 mm 1 mps 756 mmHg 76%
21:00 +18°C° 0 mm 1 mps 756 mmHg 82%
22:00 +16°C° 0 mm 0 mps 756 mmHg 81%
23:00 +16°C° 0 mm 0 mps 756 mmHg 81%

Day after tomorrow, 26 July, Monday

Time Temperature Precipitation Wind Pressure Humidity
00:00 +16°C° 0 mm 0 mps 756 mmHg 80%
01:00 +16°C° 0 mm 0 mps 755 mmHg 81%
02:00 +15°C° 0 mm 0 mps 755 mmHg 82%
03:00 +15°C° 0 mm 0 mps 755 mmHg 83%
04:00 +16°C° 0 mm 1 mps 755 mmHg 84%
05:00 +18°C° 0 mm 1 mps 755 mmHg 84%
06:00 +18°C° 0 mm 1 mps 755 mmHg 85%
07:00 +18°C° 0 mm 2 mps 754 mmHg 79%
08:00 +20°C° 0 mm 2 mps 754 mmHg 73%
09:00 +21°C° 0 mm 2 mps 754 mmHg 68%
10:00 +22°C° 0 mm 3 mps 754 mmHg 64%
11:00 +24°C° 0 mm 3 mps 754 mmHg 61%
12:00 +25°C° 0 mm 4 mps 753 mmHg 57%
13:00 +25°C° 0 mm 4 mps 753 mmHg 56%
14:00 +25°C° 0 mm 4 mps 753 mmHg 54%
15:00 +25°C° 0 mm 5 mps 753 mmHg 52%
16:00 +23°C° 0 mm 5 mps 753 mmHg 56%
17:00 +22°C° 0 mm 4 mps 753 mmHg 60%
18:00 +21°C° 0 mm 4 mps 753 mmHg 64%
19:00 +19°C° 0 mm 4 mps 753 mmHg 72%
20:00 +17°C° 0 mm 3 mps 753 mmHg 80%
21:00 +14°C° 0 mm 3 mps 754 mmHg 89%
22:00 +14°C° 0 mm 3 mps 754 mmHg 91%
23:00 +14°C° 0 mm 2 mps 754 mmHg 93%

27 July, Tuesday

Time Temperature Precipitation Wind Pressure Humidity
00:00 +13°C° 0 mm 2 mps 754 mmHg 95%
01:00 +13°C° 0 mm 2 mps 754 mmHg 95%
02:00 +13°C° 0 mm 2 mps 754 mmHg 96%
03:00 +13°C° 0 mm 2 mps 754 mmHg 96%
04:00 +14°C° 0 mm 2 mps 754 mmHg 94%
05:00 +14°C° 0 mm 2 mps 754 mmHg 92%
06:00 +15°C° 0 mm 2 mps 754 mmHg 91%
07:00 +16°C° 0 mm 2 mps 754 mmHg 83%
08:00 +17°C° 0 mm 3 mps 754 mmHg 76%
09:00 +18°C° 0 mm 3 mps 754 mmHg 69%
10:00 +19°C° 0 mm 3 mps 754 mmHg 63%
11:00 +20°C° 0 mm 3 mps 754 mmHg 57%
12:00 +21°C° 0 mm 4 mps 754 mmHg 51%
13:00 +21°C° 0 mm 4 mps 754 mmHg 50%
14:00 +22°C° 0 mm 3 mps 754 mmHg 48%
15:00 +22°C° 0 mm 3 mps 754 mmHg 46%
16:00 +21°C° 0 mm 3 mps 754 mmHg 49%
17:00 +21°C° 0 mm 3 mps 754 mmHg 53%
18:00 +20°C° 0 mm 2 mps 754 mmHg 56%
19:00 +19°C° 0 mm 2 mps 754 mmHg 62%
20:00 +18°C° 0 mm 1 mps 754 mmHg 69%
21:00 +15°C° 0 mm 1 mps 754 mmHg 75%
22:00 +15°C° 0 mm 1 mps 754 mmHg 78%
23:00 +14°C° 0 mm 1 mps 753 mmHg 82%

28 July, Wednesday

Time Temperature Precipitation Wind Pressure Humidity
00:00 +14°C° 0 mm 1 mps 753 mmHg 85%
01:00 +14°C° 0.1 mm 1 mps 753 mmHg 88%
02:00 +14°C° 0.1 mm 2 mps 752 mmHg 90%
03:00 +14°C° 0.1 mm 2 mps 752 mmHg 93%
04:00 +14°C° 1.2 mm 2 mps 751 mmHg 95%
05:00 +14°C° 1.2 mm 1 mps 751 mmHg 96%
06:00 +14°C° 1.2 mm 1 mps 750 mmHg 97%
07:00 +14°C° 4.1 mm 1 mps 750 mmHg 97%
08:00 +14°C° 4.1 mm 1 mps 749 mmHg 97%
09:00 +14°C° 4.1 mm 1 mps 749 mmHg 97%
10:00 +14°C° 3.1 mm 1 mps 749 mmHg 97%
11:00 +14°C° 3.1 mm 1 mps 748 mmHg 96%
12:00 +14°C° 3.1 mm 2 mps 748 mmHg 96%
13:00 +15°C° 1.9 mm 2 mps 748 mmHg 95%
14:00 +15°C° 1.9 mm 2 mps 748 mmHg 93%
15:00 +14°C° 1.9 mm 3 mps 748 mmHg 92%
16:00 +14°C° 0.3 mm 3 mps 747 mmHg 90%
17:00 +15°C° 0.3 mm 2 mps 747 mmHg 88%
18:00 +15°C° 0.3 mm 2 mps 747 mmHg 86%
19:00 +14°C° 0 mm 2 mps 747 mmHg 89%
20:00 +13°C° 0 mm 1 mps 747 mmHg 92%
21:00 +12°C° 0 mm 1 mps 747 mmHg 95%
22:00 +12°C° 0 mm 1 mps 747 mmHg 95%
23:00 +11°C° 0 mm 1 mps 747 mmHg 95%

29 July, Thursday

Time Temperature Precipitation Wind Pressure Humidity
00:00 +11°C° 0 mm 1 mps 747 mmHg 96%
01:00 +11°C° 0 mm 1 mps 747 mmHg 96%
02:00 +10°C° 0 mm 1 mps 747 mmHg 96%
03:00 +10°C° 0 mm 1 mps 747 mmHg 96%
04:00 +11°C° 0 mm 1 mps 747 mmHg 96%
05:00 +11°C° 0 mm 1 mps 747 mmHg 95%
06:00 +12°C° 0 mm 1 mps 747 mmHg 94%
07:00 +13°C° 0 mm 2 mps 747 mmHg 89%
08:00 +14°C° 0 mm 2 mps 747 mmHg 83%
09:00 +14°C° 0 mm 3 mps 747 mmHg 78%
10:00 +14°C° 0.2 mm 3 mps 747 mmHg 80%
11:00 +14°C° 0.2 mm 3 mps 747 mmHg 82%
12:00 +14°C° 0.2 mm 3 mps 748 mmHg 84%
13:00 +14°C° 0.3 mm 3 mps 748 mmHg 87%
14:00 +13°C° 0.3 mm 3 mps 748 mmHg 90%
15:00 +13°C° 0.3 mm 3 mps 748 mmHg 93%
16:00 +13°C° 0 mm 3 mps 748 mmHg 92%
17:00 +14°C° 0 mm 3 mps 748 mmHg 91%
18:00 +14°C° 0 mm 3 mps 748 mmHg 91%
19:00 +13°C° 0 mm 3 mps 749 mmHg 91%
20:00 +13°C° 0 mm 4 mps 749 mmHg 91%
21:00 +12°C° 0 mm 4 mps 749 mmHg 91%
22:00 +12°C° 0 mm 3 mps 750 mmHg 92%
23:00 +11°C° 0 mm 3 mps 750 mmHg 93%
Show more